www.pogodaiklimat.ru

Погода и климат >> Архив погоды >> Индия >> Гуджарат >> Порбандар


ПОГОДА в Порбандаре

  • Прогноз погоды в Порбандаре
  • Монитор погоды в Порбандаре

АРХИВ ПОГОДЫ в Порбандаре

Время (UTC), дата Ветер
(напр.,м/с)
 
Видим.   Явления Облачность Т
(С)
Тd
(С)
f
(%)
Тe
(С)
Тes
(С)
Комфортность P
(гПа)
Po
(гПа)
Тmin
(С)
Tmax
(С)
R
(мм)
R24
(мм)
S
(см)
21 16.03 С 3 4000 м ясно +23.8 +6.9 34 +24 +24 комфорт 1013.3 1012.5
00 17.03 С 3 4000 м ясно +22.0 +9.9 46 +24 +24 комфорт 1013.0 1012.2
03 17.03 штиль 0 4000 м дым ясно +22.6 +9.7 44 +24 +29 комфорт 1014.7 1013.9 +19.6
06 17.03 В 4 4000 м ясно +33.2 +2.8 15 +30 +41 жарко 1015.3 1014.5
09 17.03 СЗ 5 4000 м ясно +35.2 +5.1 15 +32 +42 жарко 1012.5 1011.7
12 17.03 З 3 4000 м ясно +31.4 +18.1 45 +36 +38 очень
душно
1011.5 1010.7 +35.7
15 17.03 С 3 4000 м ясно +30.4 +2.5 17 +28 +28 жарко 1012.8 1012.0
18 17.03 С 5 4000 м ясно +25.8 +8.4 33 +26 +26 жарко 1013.0 1012.2
21 17.03 С 4 4000 м ясно +24.6 +8.7 36 +25 +25 комфорт 1012.2 1011.4
00 18.03 СЗ 2 4000 м ясно +22.0 +11.7 52 +24 +24 комфорт 1012.2 1011.4
03 18.03 штиль 0 4000 м ясно +23.0 +14.6 59 +27 +31 душно 1014.6 1013.8 +19.9
06 18.03 В 5 4000 м ясно +33.6 +7.1 19 +32 +41 жарко 1015.3 1014.5
09 18.03 СЗ 4 4000 м ясно +35.2 +7.2 18 +33 +44 жарко 1013.0 1012.2
12 18.03 З 5 4000 м ясно +32.6 +12.0 28 +33 +34 жарко 1011.9 1011.1 +36.1
15 18.03 С 5 4000 м ясно +27.0 +16.7 53 +31 +31 душно 1012.6 1011.8
18 18.03 С 3 4000 м ясно +25.4 +9.4 36 +26 +26 жарко 1013.1 1012.3
21 18.03 С 4 4000 м ясно +23.4 +10.4 44 +25 +25 комфорт 1011.6 1010.8
00 19.03 С 4 4000 м ясно +23.2 +7.6 37 +24 +24 комфорт 1010.9 1010.1
03 19.03 С 2 4000 м ясно +24.4 +10.4 41 +25 +29 комфорт 1012.5 1011.7 +21.4
06 19.03 СЗ 4 4000 м ясно +32.6 +7.1 20 +31 +42 жарко 1013.0 1012.2
09 19.03 СЗ 8 4000 м ясно +32.0 +17.3 41 +36 +39 очень
душно
1010.7 1009.9
12 19.03 С 8 4000 м ясно +29.8 +15.6 42 +33 +33 душно 1009.8 1009.0 +33.6
15 19.03 С 5 4000 м ясно +25.0 +20.4 76 +31 +31 очень
душно
1010.8 1010.0
18 19.03 С 3 4000 м мгла ясно +23.2 +20.8 86 +31 +31 очень
душно
1011.4 1010.6
21 19.03 С 3 4000 м мгла ясно +22.2 +20.3 89 +28 +28 душно 1010.6 1009.8
00 20.03 С 2 2000 м мгла ясно +20.6 +19.7 95 +26 +26 душно 1009.4 1008.6
03 20.03 С 2 4000 м мгла 4/4 600 м
[Sc]
+22.6 +20.8 90 +30 +32 очень
душно
1011.6 1010.8 +19.9
06 20.03 СЗ 5 4000 м 3/3 600 м
[Sc]
+28.4 +19.5 59 +34 +40 очень
душно
1012.4 1011.6
09 20.03 З 8 4000 м ясно +29.0 +17.3 49 +33 +36 очень
душно
1011.2 1010.4
12 20.03 З 8 4000 м ясно +27.6 +17.1 53 +32 +32 очень
душно
1010.2 1009.4 +29.5
15 20.03 С 4 4000 м ясно +24.0 +17.6 67 +28 +28 душно 1011.9 1011.1
18 20.03 С 3 4000 м ясно +21.8 +16.6 72 +26 +26 душно 1012.7 1011.9
21 20.03 С 2 4000 м ясно +20.4 +16.4 78 +24 +24 комфорт 1011.8 1011.0
00 21.03 С 2 4000 м ясно +19.0 +16.3 84 +21 +21 комфорт 1011.5 1010.7
03 21.03 Ю 2 4000 м мгла 4/3 600 м
[Sc Ac trans]
+20.8 +16.3 75 +25 +27 комфорт 1014.2 1013.4 +17.7
06 21.03 С 6 4000 м ясно +27.8 +15.0 46 +30 +38 жарко 1014.9 1014.1
09 21.03 З 6 4000 м ясно +28.8 +18.2 53 +34 +41 очень
душно
1012.8 1012.0
12 21.03 З 7 4000 м ясно +27.0 +20.0 66 +33 +34 очень
душно
1012.0 1011.2 +29.8
15 21.03 СЗ 6 4000 м мгла ясно +24.4 +21.4 83 +31 +31 очень
душно
1013.3 1012.5
18 21.03 С 5 4000 м мгла ясно +23.0 +20.5 86 +30 +30 очень
душно
1014.2 1013.4
21 21.03 С 3 4000 м мгла ясно +21.8 +20.6 93 +28 +28 душно 1003.6 1002.8
00 22.03 С 4 4000 м мгла ясно +21.4 +19.2 87 +26 +26 душно 1013.7 1012.9
03 22.03 С 4 4000 м мгла ясно +22.8 +20.0 84 +29 +32 очень
душно
1015.5 1014.7 +20.7
06 22.03 С 7 4000 м ясно +31.0 +11.5 30 +31 +36 жарко 1016.1 1015.3
09 22.03 З 6 4000 м ясно +33.0 +16.2 37 +36 +42 очень
душно
1013.4 1012.6
12 22.03 З 8 4000 м ясно +29.6 +19.5 55 +36 +36 очень
душно
1011.7 1010.9 +34.6
15 22.03 СЗ 5 4000 м ясно +27.0 +18.9 61 +32 +32 очень
душно
1013.0 1012.2
18 22.03 СЗ 4 4000 м ясно +25.8 +15.6 53 +29 +29 душно 1014.0 1013.2
21 22.03 С 5 4000 м ясно +24.2 +15.2 57 +27 +27 жарко 1013.7 1012.9
00 23.03 С 6 4000 м мгла ясно +23.0 +18.2 74 +29 +29 очень
душно
1013.4 1012.6
03 23.03 С 6 4000 м мгла ясно +25.0 +17.3 62 +29 +30 душно 1015.0 1014.2 +22.3
06 23.03 С 5 4000 м ясно +34.0 +7.9 20 +32 +42 жарко 1014.9 1014.1
09 23.03 З 6 4000 м ясно +34.4 +12.9 27 +35 +42 очень
жарко
1012.6 1011.8
12 23.03 З 7 4000 м ясно +32.0 +16.9 40 +35 +36 очень
душно
1011.1 1010.3 +36.1
15 23.03 СЗ 4 4000 м ясно +28.8 +13.4 39 +30 +30 жарко 1012.0 1011.2
18 23.03 СЗ 5 4000 м ясно +27.6 +17.1 53 +32 +32 очень
душно
1013.2 1012.4

 

Местоположение метеостанции Порбандар (Гуджарат, Индия): широта 21.65 долгота 69.67 высота над уровнем моря 7 м.

В архиве по умолчанию представлена погода в Порбандаре за последнюю неделю. Архивные данные за месяц целиком и за предыдущие месяцы, начиная с января 2011 года, Вы можете получить, выбрав интересующий диапазон дат из раскрывающегося списка и нажав кнопку "Ввод!".


*Определитесь, кто Вы:
робот инопланетянин человек

Внимание! Время в таблицах - всемирное. Для получения местного времени необходимо прибавить поправку, которая равна 5.5 ч.

Смотрите также архив погоды в соседних городах и на ближайших метеорологических станциях:

Погода в Дварке (Гуджарат, Индия) (101 км)
Погода в Охе (Гуджарат, Индия) (108 км)
Погода в Веравале (Гуджарат, Индия) (111 км)
Погода в Раджкоте (Гуджарат, Индия) (135 км)
Погода в Мандви (Гуджарат, Индия) (136 км)
Погода в Амрели (Гуджарат, Индия) (160 км)
Погода в Нью-Кандле (Гуджарат, Индия) (160 км)
Погода в Диу (Даман и Диу, Индия) (166 км)
Погода в Кандле (Гуджарат, Индия) (168 км)
Погода в Бхудже (Гуджарат, Индия) (178 км)

Пояснения к столбцам:

Ветер - указаны скорость ветра в м/с - средняя за 10 мин, порывы в срок и между сроками (в фигурных скобках) и направление, откуда дует ветер: С - северный, СВ - северо-восточный, В - восточный, ЮВ - юго-восточный, Ю - южный, ЮЗ - юго-западный, З - западный, СЗ - северо-западный.
Видимость - горизонтальная дальность видимости в метрах или километрах. При видимости от 1 до 10 км при отсутствии осадков обычно наблюдается дымка, при ухудшении видимости до 1 км и менее - туман. В сухую погоду видимость может ухудшаться дымом, пылью или мглою.
Явления - указаны атмосферные явления, наблюдавшиеся в срок или в последний час перед сроком; фигурными скобками обозначены явления, наблюдавшиеся между сроками (за 1-3 часа до срока); квадратными скобками обозначены град или гололедные отложения с указанием их диаметра в мм.
Облачность - указаны через наклонную черту общая и нижняя облачность в баллах и высота нижней границы облаков в метрах; квадратными скобками обозначены формы облаков: Ci - перистые, Cs - перисто-слоистые, Cc - перисто-кучевые, Ac - высококучевые, As - высокослоистые, Sc - слоисто-кучевые, Ns - слоисто-дождевые, Cu - кучевые, Cb - кучево-дождевые. Подробнее классификацию облаков см. в Атласе облаков (PDF).
T - Температура воздуха - температура, измеренная на высоте 2 м над землей.
Td - Температура точки росы - температура, при понижении до которой содержащийся в воздухе водяной пар достигнет насыщения.
f - Относительная влажность воздуха - влажноcть воздуха, измеренная на высоте 2 м над землей.
Te - Эффективная температура - температура, которую ощущает одетый по сезону человек в тени. Характеристика душности погоды. При расчете учитывается влияние влажности воздуха и скорости ветра на теплоощущения человека.
Tes - Эффективная температура на солнце - температура, которую ощущает человек, с поправкой на солнечный нагрев. Характеристика знойности погоды. Зависит от высоты солнца над горизонтом, облачности и скорости ветра. Ночью, в пасмурную погоду, а также при ветре 12 м/с и более поправка равна нулю.
P - Атмосферное давление - приведенное к уровню моря атмосферное давление.
Po - Атмосферное давление - измеренное на уровне метеостанции атмосферное давление.
Tmin - Минимальная температура - минимум температуры воздуха на высоте 2 м над землей.
Tmax - Максимальная температура - максимум температуры воздуха на высоте 2 м над землей.
R - Количество осадков - Количество выпавших осадков за период времени, мм. При наведении курсора мыши на число - период времени, за который выпало указанное количество осадков.
R24 - Количество осадков - Количество выпавших осадков за 24 часа, мм.
S - Снежный покров - Высота снежного покрова, см. При наведении курсора мыши на число - состояние снежного покрова и степень покрытия местности в баллах.